105P/Singer Brewster

Epoch 2005 Sept. 27.0 TT = JDT 2453640.5  

T 2005 Sept. 11.32953 TT                                Nakano

q   2.0412993            (2000.0)            P               Q

n   0.15280206     Peri.   46.65265     -0.51519410     +0.85638089

a   3.4651065      Node   192.47128     -0.82525894     -0.50651904

e   0.4108985      Incl.    9.17952     -0.23134979     -0.10025085

P   6.45

From 111 observations 1986-2005, mean residual 0".77.

   Nongravitational parameters A1 = +0.07 +/- 0.21, A2 = -0.0676 +/- 0.0030.

Residuals in seconds of arc 

1986/                     860727 691  0.4+  0.9+    050304 691  0.2+  0.0   

860503 675  0.7-  0.1+    860727 691  1.1+  0.5+    050307 A41  0.2-  0.2+  

860503 675 (3.4+  2.8-)   860727 691  0.3+  1.4+    050307 A41  0.4+  1.5+  

860505 474  0.7+  0.6+    860906 691  0.0   0.4-    050307 A41 (2.4+  0.6-) 

860505 399  1.3+  1.3+    860906 691  0.3-  1.7+    050307 704  1.3+  0.4+  

860505 474 (1.2-  2.9+)   860906 691  1.3-  0.1-    050307 704  0.8+  0.4+  

860505 399 (1.6+  4.1+)   1992/                     050307 704  0.1+  0.1+  

860506 474 (0.5+  3.1+)   920401 691  0.0   0.3-    050307 704  0.9-  0.5+  

860506 474 (0.1+  3.3+)   920401 691  0.7+  0.1+    050307 704  0.3+  0.2+  

860506 372 (2.7-  1.9+)   920404 691  0.4-  1.6-    050308 A61  0.2+  1.6-  

860506 372  0.6-  1.4-    920404 691  1.2-  1.7-    050308 A61 (5.9+  1.3-) 

860508 657 (2.3-  3.4+)   920404 691  0.7-  0.6-    050308 G92  0.1+  0.0   

860508 474  0.5+  0.0     1993/                     050308 G92  0.3+  0.2-  

860508 474 (3.9+  0.3+)   930720 691  0.0   0.7+    050308 G92  0.6+  0.2-  

860508 323  0.5-  0.9+    930720 691  0.4+  0.5+    050308 699  0.8-  0.3+  

860509 801  1.0-  0.9+    930720 691  0.1+  0.5+    050308 699  0.1-  0.3+  

860510 801  1.5-  1.6+    930724 691  0.4-  1.1+    050308 699  0.4-  1.0+  

860510 293 (0.3-  3.2+)   930724 691  0.2-  0.8+    050308 699  0.0   0.2+  

860510 293  0.2-  2.3+    930816 691  0.1-  0.3+    050309 G92  0.1+  0.0   

860513 688 (3.4-  3.2-)   930816 691  0.9-  0.4-    050309 G92  0.2+  0.2-  

860513 688 (0.5+  3.3-)   930816 691  0.5-  0.2+    050309 G92  0.4-  0.1+  

860514 474  0.1-  1.4-    930916 691  0.8+  0.5+    050309 104  1.1+  0.6-  

860514 474  0.2-  1.0-    930916 691  0.1+  0.6+    050309 104  0.1+  0.0   

860514 372 (0.9-  2.8+)   930916 691  0.2+  1.0+    050309 104  0.0   0.6-  

860516 323 (4.5+  0.8-)   1999/                     050310 844  0.5-  0.8-  

860528 323  0.4+  2.3+    990213 693  1.5+  0.5-    050310 844  0.2-  0.0   

860529 323  1.4+  0.5+    990213 693  0.9+  0.6-    050310 844  1.3-  0.7+  

860530 323  0.2+  0.8+    990213 693  0.7+  0.6-    050310 844 (0.8+  2.1+) 

860603 801  1.6+  0.2+    990412 693  0.4-  1.9-    050310 844  0.7+  0.2+  

860604 675  0.8-  0.3-    990412 693  0.8-  1.5-    050310 699  0.7+  0.3+  

860604 323  1.2-  1.5+    990608 360  0.3-  1.3-    050310 699  0.4+  0.6+  

860605 801  0.1+  0.5+    990608 360  0.3-  0.9-    050310 699  0.1-  1.2+  

860606 707  1.0+  0.8+    990611 867  0.1-  0.7-    050310 699  0.1+  0.8+  

860606 691  1.0+  0.1+    990611 867  0.5+  1.1-    050311 G92  0.0   0.0   

860606 691  1.3+  0.0     990614 704  0.6+  0.6-    050311 G92  0.3+  0.3-  

860606 675  0.2-  0.7+    990614 704  0.5+  1.9-    050311 G92  0.2-  0.2-  

860607 691 (0.3-  2.6-)   990614 704  0.2-  1.5-    050311 213  0.9+  0.5+  

860607 691 (0.3-  2.5-)   990614 704  1.2-  1.1-    050311 213  0.8+  0.1+  

860607 691  0.4-  2.3-    990614 704  0.2-  0.7-    050312 213  0.4+  0.6-  

860612 707  0.1-  0.5-    2005/                     050312 213  0.2+  0.4-  

860706 691  0.3-  0.2-    050304 691  0.1+  0.3+    050312 213  0.3+  0.5-  

860706 691  0.4-  0.0     050304 703  0.2-  0.1-    050313 A02  0.9-  0.8-  

860706 691  0.3-  0.5-    050304 703  0.8-  0.3+    050313 A02  0.1-  0.4-  

860708 801 (4.8+  7.2+)   050304 703  0.3-  0.5+    050313 A02  1.0-  0.3-  

860711 323 (3.5+  0.0 )   050304 691  0.3+  0.4+                            

860712 707  0.1+  1.7+    050304 703  1.2-  0.5+                            



NAKANO

         **** Don't distribute anyone except personal use only ****

                (C) Copyright 2005 OAA/ComputingSection

write mail from CFAD0::NAKANO on 2005-04-06 02:03:09(JST).



◎105P/Singer Brewster    (From YC 2463)

  2005年3月以降になって,この彗星の今期の回帰が各地で観測された.彗星の

CCD全光度は,17等〜18等級と観測されている.NK 853(= HICQ 2005)にある予

報軌道から,彗星は,赤経方向に+55",赤緯方向に-14"ほどのずれが見られた.

これは,近日点通過への補正値にして,儺= -0.034日となる.

  OAA計算課では,1986年から2005年までに行なわれた111個の観測から次の軌道

を計算した.平均残差は0".77(NK 1172; http://www.oaa.gr.jp/~oaacs/nk/nk

1172.htm).位置予報は,HICQ 2005(p. H122)にある予報に上記の儺を補正

すれば良い.



   T = 2005 Sept. 11.32953 TT   Epoch = 2005 Sept. 27.0 TT

   ω =  46o.65265                  e =   0.4108985           A1 =  +0.07

   Ω = 192.47128    (2000.0)       a =   3.4651065 AU        A2 =  -0.0676

   i =   9.17952                   n゚=   0.15280206

   q =   2.0412993 AU              P =   6.45 年

From 111 observations 1986-2005, mean residual 0".77.

   Nongravitational parameters A1 = +0.07 +/- 0.21, A2 = -0.0676 +/- 0.0030.



NAKANO

         **** Don't distribute anyone except personal use only ****

                (C) Copyright 2005 OAA/ComputingSection

write mail from CFAD0::NAKANO on 2005-03-25 02:10:06(JST).

 



 105P/Singer Brewster 

Epoch 2005 Sept. 27.0 TT = JDT 2453640.5  

T 2005 Sept. 11.34841 TT                                Nakano

q   2.0412902            (2000.0)            P               Q

n   0.15279943     Peri.   46.64860     -0.51524866     +0.85634800

a   3.4651461      Node   192.47168     -0.82522685     -0.50657214

e   0.4109079      Incl.    9.17963     -0.23134273     -0.10026346

P   6.45

From 63 observations 1986-1999, mean residual 0".90.



NAKANO

         **** Don't distribute anyone except personal use only ****

                (C) Copyright 2002 OAA/ComputingSection

write mail from CFAD0::NAKANO on 2002-05-10 00:07:37(JST).



戻ります。